NEUTRON-1

Last updated on Mon Jun 27 2022 00:02:05 GMT+0000 (Coordinated Universal Time)

1 46923U 98067RT 22176.41526330 .12845636 12650-4 26350-3 0 9998 2 46923 51.6170 243.5264 0005175 317.3043 42.7583 16.46729377 93330

Satellite not in orbit